Regional Weather Roundup
Issued by NWS

Home | Current Version | Previous Version | Text Only | Print | Product List | Glossary On
Versions: 1 2 3 4 5 6 7 8 9 10 11 12 13 14 15 16 17 18 19 20 21 22 23 24 25 26 27 28 29 30 31 32 33 34 35 36 37 38 39 40 41 42 43 44 45 46 47 48 49 50
000
ASUS44 KOUN 210510
RWROK

WEATHER ROUNDUP FOR OKLAHOMA
NATIONAL WEATHER SERVICE NORMAN OK
1100 PM CST SAT DEC 20 2014

NOTE: "FAIR" INDICATES FEW OR NO CLOUDS BELOW 12,000 FEET WITH NO
      SIGNIFICANT WEATHER AND/OR OBSTRUCTIONS TO VISIBILITY.

OKZ001>007-009>012-014-015-017-210600-
NORTHWEST OKLAHOMA AND THE PANHANDLE

CITY           SKY/WX    TMP DP  RH WIND       PRES   REMARKS
GAGE           CLOUDY    40  39  97 S16       30.03F FOG     WCI  31
ENID/WOODRING  PTCLDY    43  37  81 S10       30.10F
$$

OKZ016-021>023-033>039-044-045-210600-
SOUTHWEST OKLAHOMA

CITY           SKY/WX    TMP DP  RH WIND       PRES   REMARKS
LAWTON/REGL    CLOUDY    43  39  86 SE7       30.14F
LAWTON/FT SILL CLOUDY    43  39  88 S8        30.13F
FREDERICK      CLEAR     41  39  93 SE10      30.09F
CLINTON        CLOUDY    40  38  93 S13       30.09F FOG     WCI  32
HOBART         PTCLDY    40  38  93 S12       30.10F WCI  33
ALTUS AFB      MOCLDY    39  39 100 SE8       30.10F WCI  34
$$

OKZ018>020-024>031-210600-
CENTRAL OKLAHOMA

CITY           SKY/WX    TMP DP  RH WIND       PRES   REMARKS
OKLAHOMA CITY  CLOUDY    42  37  82 S9        30.13F
OKC/WILEY POST CLOUDY    42  37  82 S10       30.13F
STILLWATER     CLOUDY    43  37  79 S7        30.14F
GUTHRIE        CLOUDY    43  37  79 S6        30.14F
$$

OKZ008-013-054>072-210600-
NORTHEAST OKLAHOMA

CITY           SKY/WX    TMP DP  RH WIND       PRES   REMARKS
TULSA          CLOUDY    43  39  86 S3        30.18F
TULSA/JONES    CLOUDY    42  39  89 CALM      30.18F
PONCA CITY     CLOUDY    43  37  79 S8        30.12F
BARTLESVILLE   CLOUDY    41  35  79 S7        30.18F
MUSKOGEE       CLOUDY    43  41  93 CALM      30.21S
$$

OKZ032-040>043-046>053-073>077-210600-
SOUTH CENTRAL/SOUTHEAST OKLAHOMA

CITY           SKY/WX    TMP DP  RH WIND       PRES   REMARKS
ARDMORE/DWNTWN CLOUDY    43  41  93 CALM      30.19S
MCALESTER      CLOUDY    45  43  93 CALM      30.19R
$$



USA.gov is the U.S. government's official web portal to all federal, state and local government web resources and services.